• In United Kingdom
  • List of Countries
  • For 7 days
  • Water Temperature
  • Satellite Maps
  • Weather Map
  • Weather Widgets
  • user-avatar
    Login

    Hourly Weather Tbilisi

    Today, 22 September, Friday

    Time Temperature Precipitation Wind Pressure Humidity
    00:00 +22°C° 0.1 mm 1 mps 702 mmHg 55%
    01:00 +21°C° 0 mm 1 mps 702 mmHg 56%
    02:00 +20°C° 0 mm 1 mps 701 mmHg 56%
    03:00 +20°C° 0 mm 1 mps 701 mmHg 57%
    04:00 +19°C° 0 mm 1 mps 701 mmHg 58%
    05:00 +19°C° 0 mm 1 mps 701 mmHg 60%
    06:00 +18°C° 0 mm 1 mps 701 mmHg 61%
    07:00 +21°C° 0 mm 1 mps 701 mmHg 53%
    08:00 +23°C° 0 mm 1 mps 701 mmHg 45%
    09:00 +26°C° 0 mm 1 mps 701 mmHg 37%
    10:00 +27°C° 0 mm 2 mps 701 mmHg 35%
    11:00 +29°C° 0 mm 2 mps 700 mmHg 32%
    12:00 +30°C° 0 mm 2 mps 700 mmHg 30%
    13:00 +30°C° 0 mm 2 mps 700 mmHg 29%
    14:00 +31°C° 0 mm 2 mps 700 mmHg 29%
    15:00 +31°C° 0 mm 2 mps 700 mmHg 28%
    16:00 +29°C° 0.2 mm 2 mps 700 mmHg 34%
    17:00 +27°C° 0.2 mm 1 mps 700 mmHg 40%
    18:00 +24°C° 0.2 mm 1 mps 700 mmHg 47%
    19:00 +24°C° 0.3 mm 1 mps 700 mmHg 50%
    20:00 +23°C° 0.3 mm 1 mps 701 mmHg 53%
    21:00 +22°C° 0.3 mm 1 mps 701 mmHg 56%
    22:00 +21°C° 0.1 mm 1 mps 702 mmHg 57%
    23:00 +20°C° 0.1 mm 2 mps 702 mmHg 59%

    Tomorrow, 23 September, Saturday

    Time Temperature Precipitation Wind Pressure Humidity
    00:00 +19°C° 0.1 mm 2 mps 702 mmHg 60%
    01:00 +19°C° 0 mm 2 mps 702 mmHg 61%
    02:00 +19°C° 0 mm 1 mps 702 mmHg 62%
    03:00 +19°C° 0 mm 1 mps 702 mmHg 63%
    04:00 +19°C° 0 mm 1 mps 702 mmHg 63%
    05:00 +18°C° 0 mm 1 mps 702 mmHg 64%
    06:00 +18°C° 0 mm 1 mps 702 mmHg 64%
    07:00 +21°C° 0 mm 1 mps 702 mmHg 56%
    08:00 +23°C° 0 mm 1 mps 703 mmHg 49%
    09:00 +26°C° 0 mm 1 mps 703 mmHg 41%
    10:00 +27°C° 0 mm 2 mps 703 mmHg 37%
    11:00 +29°C° 0 mm 2 mps 703 mmHg 34%
    12:00 +30°C° 0 mm 3 mps 703 mmHg 30%
    13:00 +30°C° 0 mm 3 mps 703 mmHg 29%
    14:00 +30°C° 0 mm 3 mps 703 mmHg 28%
    15:00 +32°C° 0 mm 4 mps 702 mmHg 27%
    16:00 +28°C° 0.1 mm 3 mps 702 mmHg 31%
    17:00 +26°C° 0.1 mm 2 mps 702 mmHg 36%
    18:00 +24°C° 0.1 mm 1 mps 702 mmHg 41%
    19:00 +23°C° 0 mm 2 mps 703 mmHg 43%
    20:00 +21°C° 0 mm 2 mps 703 mmHg 44%
    21:00 +20°C° 0 mm 2 mps 704 mmHg 46%
    22:00 +20°C° 0.1 mm 2 mps 704 mmHg 48%
    23:00 +19°C° 0.1 mm 2 mps 704 mmHg 50%

    Day after tomorrow, 24 September, Sunday

    Time Temperature Precipitation Wind Pressure Humidity
    00:00 +19°C° 0.1 mm 2 mps 704 mmHg 52%
    01:00 +19°C° 0.1 mm 1 mps 704 mmHg 53%
    02:00 +19°C° 0.1 mm 1 mps 704 mmHg 55%
    03:00 +18°C° 0.1 mm 1 mps 704 mmHg 57%
    04:00 +18°C° 0 mm 1 mps 704 mmHg 57%
    05:00 +18°C° 0 mm 1 mps 704 mmHg 58%
    06:00 +16°C° 0 mm 1 mps 704 mmHg 59%
    07:00 +20°C° 0 mm 1 mps 705 mmHg 52%
    08:00 +22°C° 0 mm 1 mps 705 mmHg 45%
    09:00 +24°C° 0 mm 1 mps 706 mmHg 38%
    10:00 +26°C° 0 mm 1 mps 705 mmHg 35%
    11:00 +27°C° 0 mm 1 mps 705 mmHg 31%
    12:00 +28°C° 0 mm 2 mps 705 mmHg 28%
    13:00 +28°C° 0 mm 2 mps 705 mmHg 27%
    14:00 +29°C° 0 mm 2 mps 705 mmHg 26%
    15:00 +29°C° 0 mm 2 mps 705 mmHg 25%
    16:00 +27°C° 0 mm 2 mps 705 mmHg 29%
    17:00 +25°C° 0 mm 1 mps 705 mmHg 33%
    18:00 +23°C° 0 mm 1 mps 705 mmHg 37%
    19:00 +22°C° 0 mm 1 mps 705 mmHg 40%
    20:00 +21°C° 0 mm 1 mps 706 mmHg 43%
    21:00 +20°C° 0 mm 1 mps 706 mmHg 46%
    22:00 +19°C° 0 mm 1 mps 706 mmHg 47%
    23:00 +19°C° 0 mm 1 mps 706 mmHg 48%

    25 September, Monday

    Time Temperature Precipitation Wind Pressure Humidity
    00:00 +18°C° 0 mm 1 mps 706 mmHg 49%
    01:00 +18°C° 0 mm 1 mps 706 mmHg 50%
    02:00 +18°C° 0 mm 1 mps 706 mmHg 50%
    03:00 +16°C° 0 mm 1 mps 705 mmHg 50%
    04:00 +16°C° 0 mm 1 mps 705 mmHg 51%
    05:00 +16°C° 0 mm 1 mps 705 mmHg 52%
    06:00 +15°C° 0 mm 1 mps 705 mmHg 53%
    07:00 +19°C° 0 mm 1 mps 706 mmHg 48%
    08:00 +21°C° 0 mm 1 mps 706 mmHg 43%
    09:00 +23°C° 0 mm 1 mps 706 mmHg 38%
    10:00 +25°C° 0 mm 2 mps 706 mmHg 36%
    11:00 +26°C° 0 mm 2 mps 706 mmHg 34%
    12:00 +27°C° 0 mm 3 mps 706 mmHg 32%
    13:00 +27°C° 0 mm 3 mps 705 mmHg 32%
    14:00 +28°C° 0 mm 3 mps 705 mmHg 31%
    15:00 +28°C° 0 mm 3 mps 705 mmHg 30%
    16:00 +26°C° 0 mm 3 mps 705 mmHg 35%
    17:00 +24°C° 0 mm 2 mps 705 mmHg 40%
    18:00 +21°C° 0 mm 2 mps 705 mmHg 44%
    19:00 +20°C° 0 mm 2 mps 705 mmHg 47%
    20:00 +19°C° 0 mm 2 mps 705 mmHg 49%
    21:00 +18°C° 0 mm 2 mps 705 mmHg 52%
    22:00 +18°C° 0 mm 2 mps 705 mmHg 52%
    23:00 +18°C° 0 mm 2 mps 705 mmHg 53%

    26 September, Tuesday

    Time Temperature Precipitation Wind Pressure Humidity
    00:00 +17°C° 0 mm 2 mps 705 mmHg 54%
    01:00 +17°C° 0 mm 2 mps 705 mmHg 56%
    02:00 +16°C° 0 mm 2 mps 705 mmHg 58%
    03:00 +16°C° 0 mm 2 mps 705 mmHg 61%
    04:00 +16°C° 0 mm 2 mps 705 mmHg 62%
    05:00 +16°C° 0 mm 2 mps 705 mmHg 64%
    06:00 +16°C° 0 mm 2 mps 705 mmHg 66%
    07:00 +16°C° 0 mm 2 mps 705 mmHg 67%
    08:00 +17°C° 0 mm 2 mps 704 mmHg 67%
    09:00 +17°C° 0 mm 2 mps 704 mmHg 68%
    10:00 +18°C° 0 mm 2 mps 704 mmHg 66%
    11:00 +18°C° 0 mm 3 mps 703 mmHg 65%
    12:00 +19°C° 0 mm 3 mps 703 mmHg 63%
    13:00 +19°C° 0 mm 3 mps 703 mmHg 61%
    14:00 +20°C° 0 mm 3 mps 702 mmHg 59%
    15:00 +21°C° 0 mm 3 mps 702 mmHg 57%
    16:00 +19°C° 0 mm 2 mps 702 mmHg 63%
    17:00 +18°C° 0 mm 2 mps 702 mmHg 68%
    18:00 +18°C° 0 mm 1 mps 702 mmHg 74%
    19:00 +18°C° 0 mm 1 mps 702 mmHg 74%
    20:00 +18°C° 0 mm 1 mps 703 mmHg 75%
    21:00 +18°C° 0 mm 1 mps 703 mmHg 75%
    22:00 +16°C° 0.3 mm 1 mps 703 mmHg 76%
    23:00 +16°C° 0.3 mm 1 mps 703 mmHg 77%

    27 September, Wednesday

    Time Temperature Precipitation Wind Pressure Humidity
    00:00 +16°C° 0.3 mm 1 mps 703 mmHg 78%
    01:00 +16°C° 0.1 mm 1 mps 703 mmHg 79%
    02:00 +16°C° 0.1 mm 1 mps 702 mmHg 80%
    03:00 +16°C° 0.1 mm 1 mps 702 mmHg 80%
    04:00 +15°C° 0.1 mm 1 mps 702 mmHg 81%
    05:00 +15°C° 0.1 mm 1 mps 702 mmHg 82%
    06:00 +15°C° 0.1 mm 1 mps 702 mmHg 83%
    07:00 +16°C° 0.1 mm 1 mps 703 mmHg 80%
    08:00 +17°C° 0.1 mm 2 mps 703 mmHg 76%
    09:00 +17°C° 0.1 mm 2 mps 703 mmHg 73%
    10:00 +18°C° 0.2 mm 2 mps 703 mmHg 69%
    11:00 +19°C° 0.2 mm 2 mps 703 mmHg 66%
    12:00 +20°C° 0.2 mm 2 mps 703 mmHg 62%
    13:00 +20°C° 0.1 mm 2 mps 703 mmHg 61%
    14:00 +21°C° 0.1 mm 3 mps 703 mmHg 60%
    15:00 +21°C° 0.1 mm 3 mps 703 mmHg 60%
    16:00 +20°C° 0.1 mm 2 mps 703 mmHg 66%
    17:00 +18°C° 0.1 mm 2 mps 703 mmHg 72%
    18:00 +18°C° 0.1 mm 1 mps 703 mmHg 78%
    19:00 +17°C° 0.3 mm 2 mps 704 mmHg 80%
    20:00 +16°C° 0.3 mm 2 mps 704 mmHg 83%
    21:00 +16°C° 0.3 mm 2 mps 704 mmHg 85%
    22:00 +16°C° 0.3 mm 2 mps 704 mmHg 86%
    23:00 +15°C° 0.3 mm 2 mps 704 mmHg 87%
    Show more